Precipitable_Water
0.54 0.66 0.86 1.00 0.75 0.74 0.65 0.68 0.64 0.62 0.64 0.74 0.84 0.84 0.72 0.77 0.60 0.66 1.36 1.21 1.26 1.40 1.43 1.26 1.25 1.30 1.20 1.23 1.23 1.26 1.20 1.12 1.03 0.93 0.80 0.71 0.65 0.60 0.60 0.60 0.61 0.62 0.64 0.65 0.66 0.66 0.65 0.66 0.65
0.69 0.63 0.68 0.72 0.57 0.49 0.57 0.81 0.64 0.64 0.75 0.81 0.88 0.92 0.82 0.82 1.04 1.15 1.16 1.26 1.38 1.43 1.32 1.30 1.27 1.25 1.26 1.25 1.29 1.20 1.02 0.87 0.76 0.69 0.65 0.62 0.60 0.61 0.62 0.61 0.61 0.61 0.63 0.65 0.66 0.66 0.65 0.64 0.63
0.68 0.60 0.46 0.41 0.47 0.42 0.52 0.74 0.77 0.72 0.88 0.82 0.85 1.08 1.00 0.96 1.11 1.17 1.23 1.33 1.41 1.32 1.32 1.33 1.31 1.28 1.28 1.32 1.23 1.01 0.80 0.69 0.62 0.60 0.59 0.60 0.61 0.61 0.61 0.61 0.62 0.63 0.63 0.64 0.63 0.64 0.62 0.61 0.61
0.56 0.41 0.46 0.34 0.26 0.46 0.58 0.79 0.87 0.82 0.90 0.94 1.01 0.93 1.17 1.31 1.21 1.30 1.22 1.37 1.30 1.30 1.38 1.32 1.31 1.30 1.34 1.28 1.07 0.82 0.69 0.61 0.58 0.58 0.60 0.61 0.60 0.60 0.60 0.60 0.59 0.60 0.60 0.61 0.62 0.62 0.61 0.59 0.59
0.62 0.35 0.21 0.21 0.30 0.40 0.63 0.77 0.81 0.86 0.87 0.89 1.05 0.97 1.03 1.29 1.42 1.36 1.21 1.30 1.23 1.31 1.35 1.33 1.32 1.37 1.33 1.13 0.87 0.71 0.65 0.62 0.61 0.59 0.62 0.61 0.58 0.58 0.58 0.58 0.57 0.57 0.59 0.60 0.59 0.57 0.54 0.53 0.54
0.40 0.37 0.19 0.15 0.22 0.36 0.63 0.76 0.75 0.82 0.96 0.95 0.98 1.04 1.08 1.43 1.35 1.34 1.27 1.26 1.29 1.28 1.33 1.35 1.43 1.39 1.21 0.96 0.75 0.67 0.64 0.63 0.63 0.62 0.60 0.57 0.55 0.55 0.55 0.53 0.53 0.56 0.57 0.56 0.51 0.48 0.45 0.44 0.48
0.40 0.28 0.19 0.19 0.22 0.28 0.44 0.74 0.70 0.79 0.91 0.98 1.11 0.95 1.17 1.28 1.38 1.38 1.30 1.29 1.31 1.34 1.34 1.42 1.45 1.29 1.08 0.81 0.71 0.66 0.64 0.63 0.60 0.56 0.52 0.51 0.50 0.52 0.51 0.48 0.51 0.54 0.52 0.51 0.48 0.45 0.42 0.38 0.41
0.49 0.40 0.25 0.23 0.23 0.27 0.42 0.66 0.73 0.84 0.88 1.29 1.24 0.98 0.96 1.24 1.42 1.36 1.34 1.30 1.32 1.39 1.40 1.43 1.36 1.16 0.93 0.75 0.67 0.64 0.62 0.59 0.56 0.50 0.46 0.44 0.46 0.48 0.46 0.49 0.49 0.49 0.48 0.48 0.47 0.45 0.42 0.37 0.35
0.63 0.34 0.25 0.25 0.24 0.31 0.46 0.61 0.74 0.95 1.10 1.17 1.24 1.24 1.28 1.42 1.45 1.32 1.25 1.26 1.29 1.43 1.43 1.43 1.28 1.03 0.82 0.70 0.64 0.60 0.58 0.53 0.48 0.46 0.47 0.50 0.48 0.49 0.47 0.44 0.44 0.43 0.44 0.45 0.46 0.44 0.41 0.38 0.38
0.53 0.33 0.29 0.30 0.31 0.42 0.50 0.63 0.70 0.75 0.96 1.07 1.15 1.32 1.43 1.40 1.34 1.20 1.13 1.14 1.21 1.33 1.38 1.37 1.18 0.95 0.78 0.66 0.66 0.61 0.59 0.55 0.50 0.51 0.49 0.50 0.48 0.46 0.49 0.47 0.46 0.45 0.45 0.47 0.46 0.45 0.43 0.39 0.36
0.57 0.40 0.42 0.35 0.45 0.60 0.59 0.63 0.78 0.74 0.77 1.00 1.06 1.23 1.34 1.34 1.26 1.19 1.17 1.18 1.19 1.36 1.35 1.28 1.12 0.94 0.74 0.65 0.65 0.63 0.60 0.54 0.51 0.50 0.50 0.49 0.50 0.50 0.50 0.49 0.49 0.48 0.46 0.47 0.46 0.44 0.42 0.39 0.42
0.51 0.58 0.56 0.46 0.51 0.59 0.57 0.66 0.66 0.74 0.87 1.11 1.23 1.38 1.40 1.29 1.25 1.20 1.18 1.21 1.24 1.33 1.30 1.25 1.13 0.95 0.79 0.69 0.66 0.63 0.59 0.55 0.52 0.51 0.52 0.52 0.50 0.48 0.48 0.49 0.48 0.47 0.47 0.46 0.46 0.44 0.42 0.40 0.43
0.57 0.63 0.62 0.55 0.56 0.54 0.54 0.49 0.56 0.65 0.90 1.14 1.29 1.35 1.34 1.37 1.29 1.30 1.30 1.35 1.33 1.28 1.32 1.23 1.14 0.98 0.84 0.71 0.69 0.65 0.60 0.58 0.56 0.54 0.53 0.54 0.52 0.50 0.51 0.50 0.49 0.48 0.48 0.47 0.46 0.44 0.42 0.40 0.42
0.67 0.64 0.67 0.66 0.53 0.50 0.38 0.36 0.43 0.54 0.78 1.03 1.18 1.22 1.33 1.35 1.32 1.29 1.29 1.26 1.33 1.38 1.34 1.24 1.15 1.02 0.91 0.80 0.75 0.71 0.68 0.66 0.63 0.59 0.57 0.56 0.55 0.53 0.53 0.52 0.50 0.50 0.50 0.49 0.48 0.44 0.42 0.41 0.40
0.68 0.56 0.60 0.59 0.56 0.47 0.47 0.30 0.30 0.44 0.63 0.84 1.08 1.23 1.30 1.35 1.37 1.29 1.30 1.32 1.37 1.44 1.38 1.25 1.16 1.05 1.00 0.91 0.83 0.78 0.74 0.70 0.66 0.64 0.62 0.59 0.57 0.55 0.54 0.54 0.52 0.52 0.54 0.52 0.49 0.45 0.44 0.42 0.41
0.56 0.57 0.41 0.52 0.56 0.51 0.45 0.21 0.29 0.32 0.46 0.69 1.01 1.23 1.24 1.34 1.32 1.34 1.40 1.42 1.45 1.45 1.33 1.26 1.12 1.11 1.08 1.01 0.94 0.88 0.81 0.74 0.71 0.67 0.64 0.61 0.59 0.58 0.55 0.54 0.52 0.54 0.56 0.54 0.49 0.46 0.42 0.41 0.40
0.51 0.39 0.41 0.49 0.53 0.48 0.44 0.28 0.39 0.38 0.33 0.52 0.94 1.11 1.21 1.29 1.34 1.36 1.47 1.47 1.49 1.46 1.26 1.18 1.19 1.20 1.17 1.14 1.07 1.00 0.90 0.81 0.78 0.73 0.67 0.63 0.61 0.59 0.57 0.56 0.54 0.56 0.56 0.54 0.51 0.48 0.45 0.40 0.38
0.38 0.39 0.43 0.42 0.45 0.44 0.40 0.35 0.47 0.52 0.47 0.47 0.75 1.02 1.17 1.22 1.28 1.42 1.50 1.54 1.56 1.43 1.32 1.29 1.33 1.35 1.35 1.31 1.24 1.10 0.98 0.90 0.83 0.76 0.71 0.67 0.65 0.61 0.58 0.59 0.56 0.58 0.55 0.53 0.51 0.46 0.46 0.43 0.39
0.46 0.40 0.38 0.45 0.49 0.41 0.35 0.36 0.41 0.50 0.50 0.50 0.64 0.89 1.15 1.19 1.36 1.49 1.48 1.47 1.46 1.47 1.43 1.42 1.44 1.43 1.42 1.37 1.26 1.11 0.99 0.95 0.84 0.78 0.75 0.71 0.67 0.64 0.62 0.58 0.57 0.56 0.53 0.52 0.51 0.47 0.43 0.43 0.43
0.43 0.41 0.39 0.45 0.47 0.41 0.35 0.30 0.37 0.45 0.47 0.52 0.58 0.81 1.01 1.17 1.27 1.35 1.42 1.45 1.47 1.50 1.54 1.52 1.56 1.49 1.48 1.37 1.26 1.18 1.10 0.96 0.86 0.81 0.77 0.76 0.72 0.68 0.60 0.58 0.55 0.53 0.51 0.51 0.49 0.48 0.42 0.42 0.47
0.41 0.40 0.41 0.39 0.43 0.41 0.35 0.29 0.30 0.40 0.47 0.58 0.69 0.83 1.00 1.13 1.29 1.30 1.36 1.40 1.51 1.55 1.59 1.56 1.48 1.45 1.42 1.35 1.28 1.24 1.14 0.99 0.87 0.82 0.81 0.78 0.72 0.66 0.62 0.57 0.53 0.52 0.52 0.49 0.50 0.47 0.44 0.40 0.46
0.39 0.47 0.46 0.40 0.36 0.26 0.31 0.22 0.26 0.30 0.41 0.51 0.64 0.79 0.94 1.13 1.21 1.24 1.26 1.32 1.35 1.48 1.55 1.53 1.48 1.47 1.43 1.37 1.27 1.19 1.08 0.95 0.88 0.85 0.83 0.73 0.69 0.63 0.58 0.54 0.52 0.51 0.51 0.49 0.48 0.47 0.47 0.47 0.42
0.45 0.44 0.39 0.41 0.35 0.34 0.30 0.24 0.28 0.26 0.36 0.44 0.58 0.80 0.89 1.04 1.18 1.25 1.14 1.22 1.30 1.39 1.42 1.45 1.45 1.42 1.39 1.32 1.27 1.12 0.94 0.88 0.81 0.78 0.74 0.69 0.66 0.60 0.54 0.52 0.52 0.50 0.50 0.49 0.48 0.47 0.47 0.49 0.47
0.51 0.41 0.38 0.39 0.38 0.26 0.28 0.22 0.29 0.26 0.33 0.43 0.59 0.73 0.86 0.95 1.08 1.21 1.26 1.24 1.17 1.23 1.29 1.34 1.42 1.36 1.33 1.33 1.23 1.01 0.89 0.78 0.72 0.69 0.64 0.62 0.61 0.55 0.52 0.52 0.52 0.52 0.50 0.49 0.48 0.49 0.49 0.49 0.50
0.40 0.37 0.29 0.25 0.27 0.27 0.31 0.24 0.30 0.44 0.38 0.41 0.56 0.67 0.86 0.88 0.94 0.99 1.02 1.05 1.06 1.13 1.27 1.33 1.36 1.29 1.25 1.14 0.97 0.91 0.83 0.75 0.70 0.63 0.59 0.55 0.53 0.51 0.51 0.52 0.51 0.50 0.50 0.50 0.50 0.50 0.50 0.49 0.48
0.37 0.40 0.30 0.23 0.22 0.27 0.32 0.20 0.24 0.39 0.43 0.42 0.56 0.73 0.87 0.84 0.86 0.87 0.93 0.98 1.06 1.16 1.24 1.19 1.12 1.09 1.02 0.91 0.85 0.82 0.79 0.70 0.65 0.61 0.57 0.53 0.52 0.51 0.52 0.51 0.50 0.50 0.50 0.51 0.51 0.49 0.50 0.49 0.49
0.37 0.32 0.40 0.30 0.28 0.24 0.29 0.31 0.35 0.39 0.42 0.43 0.41 0.48 0.66 0.81 0.82 0.84 0.88 0.98 1.03 1.11 1.11 1.11 1.04 0.95 0.89 0.83 0.79 0.72 0.67 0.63 0.57 0.54 0.53 0.51 0.52 0.50 0.51 0.51 0.50 0.50 0.51 0.50 0.50 0.49 0.49 0.50 0.50
0.36 0.39 0.31 0.33 0.23 0.20 0.25 0.25 0.26 0.28 0.37 0.41 0.44 0.46 0.57 0.74 0.78 0.82 0.86 0.92 1.00 1.04 1.05 1.03 0.97 0.86 0.81 0.75 0.68 0.64 0.60 0.56 0.53 0.52 0.51 0.51 0.51 0.51 0.51 0.51 0.51 0.50 0.51 0.52 0.51 0.50 0.50 0.49 0.49
0.32 0.30 0.30 0.31 0.28 0.21 0.19 0.24 0.35 0.33 0.41 0.39 0.41 0.48 0.57 0.68 0.75 0.78 0.84 0.91 0.93 0.93 0.93 0.89 0.82 0.74 0.68 0.66 0.62 0.58 0.56 0.54 0.53 0.52 0.52 0.52 0.54 0.53 0.52 0.52 0.51 0.51 0.50 0.50 0.49 0.48 0.48 0.47 0.47
0.34 0.31 0.31 0.24 0.23 0.22 0.19 0.19 0.34 0.35 0.39 0.45 0.44 0.49 0.57 0.63 0.71 0.78 0.83 0.85 0.85 0.83 0.79 0.74 0.70 0.66 0.63 0.61 0.56 0.54 0.54 0.54 0.54 0.54 0.54 0.55 0.53 0.53 0.52 0.50 0.48 0.46 0.44 0.43 0.41 0.40 0.40 0.40 0.40
Wind_Speed
30 29 28 25 24 24 27 27 21 17 15 16 14 11 12 5 9 7 11 14 17 16 15 14 12 11 10 8 7 6 5 5 4 4 4 4 5 5 6 7 8 9 9 10 11 11 12 12 13
30 30 29 27 28 29 28 27 23 22 17 16 17 13 12 8 8 10 12 17 18 17 16 14 13 11 10 8 7 6 5 4 4 3 3 4 4 5 6 7 8 9 10 11 11 12 13 13 14
31 31 30 29 34 34 28 27 24 20 18 19 17 14 11 10 10 13 15 19 18 17 16 14 13 12 10 9 7 5 5 4 3 3 3 3 3 4 5 6 8 9 10 11 12 13 14 14 15
30 31 32 35 38 37 34 20 26 22 20 21 18 17 13 10 14 12 19 19 18 17 16 15 14 12 10 8 6 5 4 3 3 2 2 2 3 4 5 6 8 9 10 11 12 14 14 15 15
31 32 35 39 40 34 34 27 23 26 22 23 21 17 14 14 13 17 19 19 19 17 17 15 14 12 10 8 6 4 3 2 2 2 2 2 3 3 5 6 8 9 10 12 13 14 15 16 16
32 34 35 41 40 39 32 32 25 27 23 23 22 19 17 17 17 19 20 19 19 18 17 16 14 12 10 7 5 4 3 2 1 1 1 1 2 3 4 6 8 9 10 12 13 15 16 16 16
35 35 40 37 40 39 39 33 29 27 26 24 23 22 19 20 20 20 20 20 19 19 17 16 14 12 9 7 5 3 2 1 1 1 1 1 2 3 5 6 8 9 11 12 14 15 16 16 16
32 34 39 40 35 41 40 34 33 29 27 24 25 23 22 23 23 22 21 21 20 19 18 17 15 12 10 7 5 3 1 1 1 1 1 1 2 4 5 6 8 10 11 13 14 16 16 16 17
30 35 37 40 39 34 36 36 33 30 26 26 25 21 23 26 25 23 22 22 21 19 19 18 15 13 11 8 5 3 1 0 0 1 2 2 3 4 6 7 8 10 11 13 15 16 16 17 16
29 35 38 34 36 35 34 35 35 32 31 28 26 23 25 28 27 25 24 23 22 21 20 18 16 14 12 9 6 4 3 2 2 2 3 3 4 5 6 8 9 10 12 13 15 16 16 17 17
28 32 34 33 33 31 32 33 33 33 36 32 30 28 28 29 28 27 25 24 23 22 21 19 17 15 13 10 8 6 4 4 3 3 4 4 5 6 8 8 9 11 13 14 15 15 16 17 18
23 32 31 33 34 34 34 29 34 34 28 28 30 32 30 30 29 28 27 26 25 23 22 20 18 16 14 12 10 8 6 5 5 5 5 6 7 7 8 9 10 11 13 14 15 16 16 17 18
22 20 31 33 33 35 35 34 33 35 34 31 28 32 33 32 30 30 29 28 27 25 23 22 19 17 15 13 11 9 7 6 6 6 6 7 8 9 9 10 11 12 14 14 15 15 16 18 19
14 22 20 29 35 34 35 36 35 36 34 32 33 33 34 34 31 30 31 29 28 27 25 23 21 18 17 15 13 11 9 9 8 8 8 8 9 10 11 11 12 13 14 14 15 16 17 18 19
15 15 19 27 32 35 33 37 40 38 37 35 34 33 34 36 33 30 31 30 29 28 27 25 23 20 18 16 14 12 11 10 10 9 9 10 10 11 12 12 13 13 14 15 16 17 18 19 20
12 14 14 18 31 34 33 35 38 38 38 37 36 33 35 35 37 31 32 32 31 29 28 26 24 22 20 18 16 14 13 12 12 11 11 11 12 13 13 13 14 14 15 16 17 18 19 20 21
10 9 14 13 23 29 34 31 29 34 39 39 38 35 35 35 37 35 32 33 32 30 28 27 25 23 21 19 18 16 15 14 13 13 13 13 14 14 15 15 15 15 16 17 18 19 20 21 22
7 11 11 14 15 29 32 34 27 31 35 39 39 37 35 36 35 37 33 31 30 30 30 28 26 25 24 21 19 18 17 16 15 15 15 15 15 16 15 16 16 16 17 18 19 20 21 22 23
7 10 11 11 13 21 34 33 34 28 31 36 37 39 35 36 36 35 36 34 31 31 30 30 27 27 25 22 20 19 18 17 17 16 16 16 16 16 16 16 16 17 18 19 20 21 22 23 24
9 8 9 12 13 17 24 35 33 31 29 34 38 39 37 35 36 36 34 35 35 34 32 31 27 27 23 21 21 19 19 18 18 17 17 17 17 17 16 16 17 17 18 20 21 22 23 23 24
9 11 11 7 9 15 19 29 35 33 30 31 35 37 37 37 34 36 33 32 31 31 31 31 27 23 22 21 21 22 22 20 20 19 19 19 18 17 17 17 17 18 20 21 22 23 24 24 25
6 5 8 8 8 11 20 18 33 35 31 31 35 36 36 35 35 36 34 34 31 29 29 23 28 26 24 22 20 21 22 22 20 20 20 19 18 17 17 18 19 20 21 22 24 25 25 25 26
2 6 7 8 9 8 14 17 24 35 31 32 36 36 37 36 29 31 32 30 30 29 28 27 24 21 19 20 20 18 18 19 19 19 19 18 18 18 18 19 20 22 23 24 25 26 26 27 27
6 5 4 4 5 6 13 19 15 29 32 32 35 36 36 36 37 25 30 24 26 28 28 28 28 24 21 21 19 18 18 18 18 18 18 18 19 19 20 21 22 23 25 26 27 28 28 28 29
1 4 1 3 3 4 6 13 15 20 26 31 33 35 35 36 36 33 31 30 25 24 29 25 23 21 20 19 20 19 19 18 19 18 18 19 19 20 21 22 24 25 27 29 29 30 30 30 31
3 2 3 3 2 3 4 9 13 16 21 26 28 32 33 33 33 31 31 26 22 21 22 20 19 18 18 18 18 19 18 18 18 18 19 19 20 21 22 24 27 29 30 30 31 31 32 33 34
1 4 3 5 3 4 5 7 9 15 18 24 28 31 32 31 31 32 29 27 29 24 20 21 18 18 16 17 17 17 17 17 17 18 19 20 22 24 26 28 29 30 31 32 33 34 35 36 36
2 2 3 2 4 5 4 7 7 14 16 20 25 30 31 30 30 29 29 28 28 25 23 22 21 20 20 19 19 19 18 18 19 19 21 23 24 26 28 29 31 32 33 35 36 37 38 39 39
2 2 3 4 4 5 6 2 4 11 13 16 21 25 27 29 29 28 26 26 26 24 24 22 22 21 20 19 19 19 19 20 21 22 24 26 27 29 31 32 34 36 37 38 39 40 41 41 41
5 6 5 6 4 4 5 4 4 7 11 14 16 20 24 26 27 28 27 25 24 22 22 21 21 21 21 21 20 20 20 21 23 24 26 28 30 32 34 35 37 38 40 41 42 42 43 43 44
Wind_Direction
235 233 232 232 231 232 231 228 223 222 220 211 208 202 198 220 197 200 177 178 170 167 165 162 159 156 150 144 138 130 120 111 101 88 73 63 56 48 41 34 27 21 15 10 6 3 359 355 350
232 229 228 230 231 229 228 224 220 224 218 213 202 206 201 198 194 185 178 172 170 167 166 164 161 156 151 145 139 131 122 113 102 87 73 61 52 43 34 25 20 16 11 8 5 1 358 354 350
230 226 224 226 229 229 227 220 220 218 212 206 202 211 205 201 190 179 176 170 169 167 166 164 162 157 152 146 138 128 120 111 100 85 73 59 48 34 25 19 15 12 9 5 3 359 356 353 351
226 223 227 228 229 227 228 216 217 217 211 208 207 203 201 212 184 185 173 171 171 169 167 165 163 159 154 147 139 128 117 106 95 84 69 52 36 25 18 13 10 8 6 4 1 358 355 353 351
226 224 226 228 230 229 222 224 214 213 213 209 208 204 203 196 193 178 175 174 173 171 169 167 165 162 157 151 141 130 117 103 88 79 60 39 27 17 11 8 6 5 3 1 359 356 353 352 350
225 225 226 227 227 226 224 219 219 214 213 209 209 200 202 197 187 180 178 177 176 174 172 170 168 165 163 158 149 134 113 97 81 71 49 20 12 8 5 2 1 0 360 357 355 353 352 351 350
227 225 228 231 227 223 222 219 219 217 214 210 208 202 204 194 188 183 181 180 179 177 176 174 173 172 170 166 160 145 119 86 79 55 23 1 356 356 355 355 355 355 355 353 352 352 351 350 350
228 229 231 227 228 226 220 217 218 220 218 206 205 211 206 197 190 187 186 184 183 182 182 180 179 180 179 177 172 162 142 81 44 12 346 340 344 344 345 346 348 349 349 350 349 349 349 349 349
227 227 227 225 225 225 218 216 216 218 212 209 209 212 202 195 191 190 189 189 188 187 187 187 187 188 188 187 186 184 190 251 317 327 319 315 322 325 333 339 342 346 346 347 347 348 348 347 345
226 225 225 224 224 222 219 219 215 216 216 210 209 206 195 194 195 193 193 192 192 192 191 192 194 195 197 199 204 211 242 259 277 286 302 310 315 320 321 329 334 337 340 339 342 343 344 346 346
226 227 223 223 222 221 221 217 216 214 215 214 210 202 199 197 198 198 197 197 195 195 196 198 200 202 205 209 214 225 245 254 273 282 291 302 309 313 317 321 326 330 334 337 339 341 342 344 345
229 226 226 220 219 223 220 220 216 216 215 214 210 203 201 200 201 201 200 200 199 199 200 201 204 208 212 216 223 229 244 257 265 277 287 295 303 310 314 317 320 326 329 332 335 336 338 341 342
228 225 225 222 221 223 223 222 220 216 214 212 209 203 203 202 202 203 202 202 203 204 204 206 208 211 214 220 225 231 244 259 262 273 283 293 300 305 309 312 316 320 325 329 330 333 335 336 338
227 218 222 226 221 222 224 222 219 216 215 213 209 206 205 203 202 204 205 206 206 206 208 210 212 215 217 221 226 234 247 261 262 268 280 288 295 302 305 306 308 315 322 324 327 329 330 332 333
226 223 230 231 223 220 221 222 220 217 215 214 211 209 206 206 205 206 207 207 208 210 211 212 215 217 220 223 229 239 253 260 258 266 276 286 291 298 301 303 305 309 315 319 322 324 326 327 329
222 229 231 235 221 217 217 222 218 216 215 213 210 209 208 207 208 209 208 208 209 210 212 213 216 218 222 226 234 243 250 257 257 264 274 282 289 293 297 298 301 305 309 314 317 319 322 323 325
223 235 219 236 215 213 214 217 218 211 214 215 211 211 209 208 209 210 211 210 211 212 213 214 217 221 225 231 236 244 251 254 255 265 273 279 286 291 293 295 297 301 305 309 313 316 318 319 321
224 232 230 230 218 215 215 217 208 212 216 214 211 212 210 210 210 210 210 209 212 214 216 218 223 226 229 233 239 246 249 252 258 264 272 277 284 288 289 291 294 298 302 306 310 313 315 317 319
240 245 249 241 229 222 218 217 219 213 213 214 213 211 210 212 211 210 213 216 216 216 218 223 226 228 229 232 238 244 246 253 258 264 271 277 282 285 286 289 292 297 300 304 308 311 313 314 316
243 244 258 249 240 224 221 218 218 216 216 213 214 209 211 210 211 213 215 217 220 223 224 224 229 221 225 233 240 245 247 253 257 263 269 275 279 282 285 287 291 296 300 304 307 310 311 311 314
238 247 263 260 228 230 228 219 217 219 215 213 209 209 210 209 207 209 214 216 217 221 226 227 219 220 234 243 254 250 250 253 258 263 268 275 276 278 282 286 290 295 299 302 305 308 309 309 310
273 259 261 259 248 236 214 220 217 215 213 212 208 207 206 209 213 213 216 218 220 220 224 233 236 238 243 249 253 253 256 257 257 264 270 270 271 276 280 285 290 294 298 301 304 306 306 306 307
290 306 266 253 249 248 216 222 220 210 211 212 208 208 208 207 206 205 213 221 222 230 235 237 240 242 245 247 252 255 252 255 260 265 265 266 270 275 279 285 290 294 297 300 302 303 304 304 304
309 297 228 242 239 241 225 213 230 205 213 211 209 208 208 209 212 215 213 224 225 235 240 241 239 242 246 251 251 255 255 258 261 264 267 265 269 274 280 285 290 294 297 299 301 301 301 301 301
246 70 290 240 221 277 206 212 217 203 212 214 209 209 209 211 215 220 224 230 231 242 235 234 229 236 240 250 250 254 257 261 264 264 265 267 271 276 282 287 291 294 296 298 299 299 299 299 300
207 226 332 329 312 233 215 227 223 213 211 210 209 208 210 213 216 219 221 223 222 223 220 223 228 233 240 245 249 255 259 261 262 263 265 269 273 279 284 288 292 294 296 297 298 298 298 298 298
105 242 326 318 277 277 217 231 216 211 208 209 210 211 211 213 215 217 218 221 220 224 223 227 234 239 246 250 254 256 258 259 261 265 269 273 278 283 287 290 292 294 295 296 297 297 297 297 297
285 330 294 290 316 311 236 241 229 212 207 207 208 210 211 211 213 214 217 219 221 227 229 233 238 245 251 251 253 258 258 262 265 269 273 278 282 286 288 291 293 294 295 295 296 296 296 296 296
9 339 278 308 294 308 312 244 213 203 207 208 207 206 207 209 210 212 214 218 222 226 230 236 241 247 251 252 255 258 261 266 269 272 277 281 284 287 289 291 293 294 295 295 295 296 296 296 296
306 304 314 294 308 290 298 281 242 212 208 203 200 202 205 207 209 211 214 218 221 227 232 238 243 245 248 251 257 261 264 268 272 276 280 284 286 288 290 292 293 294 294 295 296 296 296 296 296